Find OPS 0441

NORAD ID: 14675 Int'l Des: 1984-009 Owner: NRO/SAFSP Country: US operational
MEOGSO

实时位置

正在加载3D地球...

关于 OPS 0441

正在加载描述...

即将过境

Passes for default location (London). Set your location on the main map for personalized predictions.

高度历史

Loading altitude history...

两行轨道根数

1 14675U 84009A 26105.63237832 .00000076 00000-0 00000+0 0 9994
2 14675 6.0717 2.4399 0882590 25.1955 258.3168 1.00335468 7114
Epoch: Apr 15, 2026 • Age: 21 hours

当前状态

高度 38726.3 km
速度 2.87 km/s
星下点 -5.25°S, 151.56°W
发射日期 Jan 31, 1984
运行时间 42.2 years
类型 other

技术详情

分类 Payload
质量 1000.00 kg
干质量 900.00 kg
总质量 1000.00 kg
长度 6.00 m
直径 2.50 m
跨度 30.00 m
形状 Box + 2 Pan + Dish
制造商 TRW
平台类型 Vortex
阶段状态 Unknown Transfer Status
所有者/国家 NRO/SAFSP/US

Most Searched